Weather History for Francistown, Botswana

Change the Weather History Date:

Monday, August 19, 2013

  Actual Average Record
Temperature  
Mean Temperature 56 °F -  
Max Temperature 72 °F 82 °F 93 °F (2001)
Min Temperature 40 °F 52 °F 40 °F (2013)
Degree Days  
Heating Degree Days 9    
Growing Degree Days 6 (Base 50)    
Moisture  
Dew Point 43 °F    
Average Humidity 50    
Maximum Humidity 72    
Minimum Humidity 36    
Precipitation  
Precipitation 0.00 in - - ()
Sea Level Pressure  
Sea Level Pressure 30.21 in    
Wind  
Wind Speed 9 mph ()    
Max Wind Speed 24 mph    
Max Gust Speed -    
Visibility 6.1 miles    
Events      
Averages and records for this station are not official NWS values.
T = Trace of Precipitation, MM = Missing Value Source: Averaged Metar Reports

Daily Weather History Graph

Daily Weather History Graph

Search for Another Location

Airport:

Trip Planner

Search our weather history database for the weather conditions in past years. The results will help you decide how hot, cold, wet, or windy it might be!

Date:

Astronomy

Aug. 19, 2013 Rise Set
Actual Time 6:30 AM CAT 5:57 PM CAT
Civil Twilight 6:07 AM CAT 6:20 PM CAT
Nautical Twilight 5:41 AM CAT 6:46 PM CAT
Astronomical Twilight 5:15 AM CAT 7:12 PM CAT
Moon 4:26 PM CAT (8/19) 4:44 AM CAT (8/19)
Length of Visible Light 12h 12m
Length of Day
11h 27m
Waxing Gibbous, 96% of the Moon is Illuminated
Aug 19
Waxing Gibbous
Aug 21
Full
Aug 28
Last Quarter
Sep 5
New
Sep 12
First Quarter

Hourly Weather History & Observations

Time (CAT) Temp. Windchill Dew Point Humidity Pressure Visibility Wind Dir Wind Speed Gust Speed Precip Events Conditions
12:00 AM 53.6 °F - 32.0 °F 44% 30.15 in - Variable 1.2 mph - N/A   Clear
1:00 AM 51.8 °F - 30.2 °F 44% 30.15 in - Variable 2.3 mph - N/A   Clear
2:00 AM 51.8 °F - 28.4 °F 41% 30.12 in - WNW 3.5 mph - N/A   Clear
5:00 AM 41.0 °F 38.0 °F 15.8 °F 36% 30.15 in - NNE 4.6 mph - N/A   Clear
6:00 AM 41.0 °F - 19.4 °F 42% 30.15 in - Variable 2.3 mph - N/A   Clear
7:00 AM 41.0 °F - 19.4 °F 42% 30.18 in - Variable 2.3 mph - N/A   Clear
8:00 AM 57 °F - 43 °F 49%  in 6 mi East 17.3 mph - -  
9:00 AM 60.8 °F - 46.4 °F 59% 30.24 in 6.2 mi East 24.2 mph - N/A   Partly Cloudy
10:00 AM 64.4 °F - 50.0 °F 59% 30.27 in 6.2 mi East 20.7 mph - N/A   Partly Cloudy
11:00 AM 68.0 °F - 50.0 °F 52% 30.27 in 6.2 mi East 17.3 mph - N/A   Partly Cloudy
12:00 PM 68.0 °F - 50.0 °F 52% 30.27 in - East 19.6 mph - N/A   Clear
1:00 PM 69.8 °F - 50.0 °F 49% 30.24 in - East 18.4 mph - N/A   Clear
2:00 PM 71 °F - 50 °F 36%  in 6 mi ESE 8.1 mph - -   Haze
2:00 PM 71.6 °F - 50.0 °F 46% 30.21 in - ESE 19.6 mph - N/A   Clear
3:00 PM 71.6 °F - 50.0 °F 46% 30.18 in - ESE 23.0 mph - N/A   Clear
4:00 PM 73.4 °F - 50.0 °F 44% 30.18 in - East 18.4 mph - N/A   Clear
5:00 PM 71.6 °F - 50.0 °F 46% 30.06 in - ESE 13.8 mph - N/A   Clear
6:00 PM 68.0 °F - 50.0 °F 52% 30.21 in - ESE 15.0 mph - N/A   Clear
7:00 PM 66.2 °F - 50.0 °F 56% 30.24 in - ESE 17.3 mph - N/A   Clear
8:00 PM 64 °F - 50 °F 51%  in 6 mi East 10.4 mph - -   Partly Cloudy
8:00 PM 64.4 °F - 50.0 °F 59% 30.27 in - East 10.4 mph - N/A   Clear
9:00 PM 62.6 °F - 50.0 °F 63% 30.30 in - East 12.7 mph - N/A   Clear
10:00 PM 60.8 °F - 50.0 °F 68% 30.30 in - ESE 8.1 mph - N/A   Clear
11:00 PM 57.2 °F - 48.2 °F 72% 30.30 in - ESE 6.9 mph - N/A   Clear